DW6352 Weather Reports


time (UTC)temp
C
wind
direction
speed
KPH
gust
KPH
rain 1hr
cm
rain 24hr
cm
rain mn
cm
humidity
%
barometer
mb
20260509111506 7 336 3.2 9.7 0.00 0.33 0.33 87 1002.5
20260509110001 7 318 3.2 9.7 0.03 0.33 0.33 87 1002.4
20260509104559 7 321 3.2 8.0 0.03 0.33 0.33 87 1002.1
20260509103101 7 296 1.6 6.4 0.08 0.33 0.33 86 1001.9
20260509101556 7 262 1.6 4.8 0.15 0.33 0.33 86 1001.7
20260509100055 7 45 0.0 3.2 0.15 0.30 0.30 85 1001.5
20260509094554 7 45 0.0 0.0 0.23 0.30 0.30 84 1001.5
20260509093053 7 45 0.0 6.4 0.23 0.25 0.25 84 1001.7
20260509091559 8 44 6.4 12.9 0.18 0.18 0.18 83 1001.7
20260509090050 8 328 9.7 16.1 0.15 0.15 0.15 81 1002.0
20260509084547 8 349 6.4 19.3 0.08 0.08 0.08 78 1001.7
20260509083045 9 360 4.8 16.1 0.03 0.03 0.03 74 1001.6
20260509081549 10 324 17.7 27.4 0.00 0.00 0.00 68 1001.9
20260509080041 11 38 16.1 33.8 0.00 0.00 0.00 57 1001.5
20260509074539 12 317 20.9 35.4 0.00 0.00 0.00 47 1001.5
20260509073035 11 309 12.9 29.0 0.00 0.00 0.00 49 1001.4
20260509071531 10 272 8.0 19.3 0.00 0.00 0.00 48 1001.6
20260509070128 10 322 4.8 14.5 0.00 0.00 0.00 48 1001.4
20260509064525 8 324 4.8 8.0 0.00 0.00 0.00 52 1001.7
20260509063024 7 323 3.2 6.4 0.00 0.00 0.00 57 1001.6
20260509061522 7 305 0.0 0.0 0.00 0.00 0.00 57 1001.1
20260509060024 7 305 0.0 0.0 0.00 0.00 0.00 57 1000.9
20260509054517 8 305 1.6 3.2 0.00 0.00 0.00 56 1001.2
20260509053014 8 305 1.6 4.8 0.00 0.00 0.00 50 1001.3
20260509051511 9 305 1.6 4.8 0.00 0.00 0.00 50 1001.3
20260509050008 10 305 0.0 4.8 0.00 0.00 0.00 44 1001.7
20260509044507 10 306 1.6 4.8 0.00 0.00 0.00 41 1001.5
20260509043006 11 306 1.6 4.8 0.00 0.00 0.00 36 1001.5
20260509041508 12 327 1.6 6.4 0.00 0.00 0.00 34 1002.0
20260509040005 12 294 1.6 9.7 0.00 0.00 0.00 33 1001.9
20260509034505 12 281 4.8 11.3 0.00 0.00 0.00 32 1002.0
20260509033004 13 307 6.4 14.5 0.00 0.00 0.00 31 1002.0
20260509031504 13 300 4.8 12.9 0.00 0.00 0.00 31 1001.8
20260509030009 14 277 6.4 17.7 0.00 0.00 0.00 30 1001.8
20260509024504 14 279 11.3 20.9 0.00 0.00 0.00 29 1001.7
20260509023002 15 305 12.9 20.9 0.00 0.00 0.00 29 1001.4
20260509021503 15 313 11.3 27.4 0.00 0.00 0.00 29 1001.4
20260509020005 16 296 17.7 33.8 0.00 0.00 0.00 28 1001.0
20260509014502 16 295 19.3 37.0 0.00 0.00 0.00 28 1000.7
20260509013104 17 301 12.9 25.7 0.00 0.00 0.00 28 1000.5
20260509011600 17 302 16.1 30.6 0.00 0.00 0.00 27 1000.3
20260509004600 18 329 9.7 27.4 0.00 0.00 0.00 22 1000.0
20260509003106 18 286 11.3 25.7 0.00 0.00 0.00 22 1000.1
20260509001557 19 303 16.1 27.4 0.00 0.00 0.00 22 1000.0
20260509000110 19 306 6.4 30.6 0.00 0.00 0.00 22 1000.0
20260508234559 19 303 16.1 30.6 0.00 0.00 0.00 21 1000.1
20260508233055 19 309 14.5 24.1 0.00 0.00 0.00 21 1000.2
20260508231557 19 290 16.1 29.0 0.00 0.00 0.00 21 1000.3
20260508230104 20 322 11.3 19.3 0.00 0.00 0.00 23 1000.4
20260508224550 19 310 12.9 20.9 0.00 0.00 0.00 22 1000.4
20260508223048 19 308 8.0 17.7 0.00 0.00 0.00 22 1000.6
20260508221547 20 272 9.7 27.4 0.00 0.00 0.00 22 1000.7
20260508220046 19 322 8.0 24.1 0.00 0.00 0.00 23 1000.9
20260508214543 19 320 12.9 27.4 0.00 0.00 0.00 23 1001.2
20260508213041 18 246 6.4 17.7 0.00 0.00 0.00 24 1001.3
20260508211540 18 248 11.3 29.0 0.00 0.00 0.00 24 1001.5
20260508210037 18 271 14.5 22.5 0.00 0.00 0.00 23 1001.7
20260508204537 18 217 8.0 30.6 0.00 0.00 0.00 23 1002.0
20260508203032 19 311 14.5 25.7 0.00 0.00 0.00 25 1002.3
20260508201530 17 40 8.0 17.7 0.00 0.00 0.00 28 1002.5
20260508200033 17 320 16.1 30.6 0.00 0.00 0.00 24 1002.8
20260508194543 18 319 14.5 27.4 0.00 0.00 0.00 24 1003.0
20260508193023 17 252 6.4 32.2 0.00 0.00 0.00 25 1003.3
20260508191522 17 292 11.3 19.3 0.00 0.00 0.00 26 1003.4
20260508190020 17 271 6.4 24.1 0.00 0.00 0.00 27 1003.5
20260508184518 16 264 12.9 22.5 0.00 0.00 0.00 27 1003.8
20260508183015 16 288 9.7 19.3 0.00 0.00 0.00 28 1004.0
20260508181525 16 268 11.3 32.2 0.00 0.00 0.00 27 1004.1
20260508180013 17 268 11.3 24.1 0.00 0.00 0.00 28 1004.3
20260508174510 17 266 9.7 24.1 0.00 0.00 0.00 26 1004.5
20260508173008 16 240 11.3 29.0 0.00 0.00 0.00 29 1004.9
20260508171508 16 203 9.7 20.9 0.00 0.00 0.00 32 1005.0
20260508170002 15 254 4.8 22.5 0.00 0.00 0.00 32 1005.4
20260508164559 15 293 3.2 22.5 0.00 0.00 0.00 33 1005.4
20260508163102 15 167 1.6 16.1 0.00 0.00 0.00 38 1005.6
20260508161604 14 193 9.7 16.1 0.00 0.00 0.00 36 1005.8
20260508160049 13 157 4.8 12.9 0.00 0.00 0.00 38 1005.9
20260508154547 12 146 9.7 17.7 0.00 0.00 0.00 38 1006.0
20260508153047 12 255 9.7 14.5 0.00 0.00 0.00 37 1006.1
20260508151542 12 232 8.0 14.5 0.00 0.00 0.00 39 1006.4
20260508150039 11 194 8.0 19.3 0.00 0.00 0.00 40 1006.6
20260508144639 11 192 12.9 19.3 0.00 0.00 0.00 41 1006.6
20260508143044 11 171 11.3 17.7 0.00 0.00 0.00 42 1006.7
20260508141533 11 192 8.0 16.1 0.00 0.00 0.00 43 1006.7
20260508140034 10 223 8.0 19.3 0.00 0.00 0.00 44 1007.0
20260508134525 9 208 4.8 9.7 0.00 0.00 0.00 52 1007.1
20260508133022 8 188 6.4 11.3 0.00 0.00 0.00 56 1007.3
20260508131518 7 198 4.8 9.7 0.00 0.00 0.00 58 1007.5
20260508130014 7 186 4.8 9.7 0.00 0.00 0.00 61 1007.5
20260508124510 5 177 8.0 11.3 0.00 0.00 0.00 69 1007.3
20260508123005 3 179 4.8 9.7 0.00 0.00 0.00 84 1007.3
20260508121502 1 205 3.2 6.4 0.00 0.00 0.00 85 1007.4
20260508120100 0 163 3.2 8.0 0.00 0.00 0.00 84 1007.2
20260508114558 0 175 3.2 6.4 0.00 0.00 0.00 83 1007.2
20260508113054 0 257 3.2 6.4 0.00 0.00 0.00 81 1007.1